This is the latest recevied weather packets stored in our database for station/object WA7CUG. If no packets are shown the sender has not sent any weather packets the latest 10 day(s).
| Time | Temp. | Humidity | Pressure | Rain* | Wind** | Luminosity | Snow |
|---|---|---|---|---|---|---|---|
| 1777674849 | 25° C | 31% | 1015.8 hPa | 0 mm | - | 272 W/m² | - |
| 1777674545 | 25.56° C | 30% | 1015.9 hPa | 0 mm | - | 343 W/m² | - |
| 1777674244 | 25.56° C | 31% | 1015.9 hPa | 0 mm | - | 652 W/m² | - |
| 1777673939 | 25° C | 30% | 1015.9 hPa | 0 mm | - | 331 W/m² | - |
| 1777673636 | 25.56° C | 33% | 1015.9 hPa | 0 mm | - | 372 W/m² | - |
| 1777673334 | 25.56° C | 33% | 1016.1 hPa | 0 mm | - | 599 W/m² | - |
| 1777673031 | 26.11° C | 33% | 1016.1 hPa | 0 mm | - | 598 W/m² | - |
| 1777672727 | 25.56° C | 30% | 1016 hPa | 0 mm | - | 609 W/m² | - |
| 1777672423 | 25° C | 30% | 1016 hPa | 0 mm | - | 690 W/m² | - |
| 1777672119 | 25° C | 31% | 1016.4 hPa | 0 mm | - | 324 W/m² | - |
| 1777671814 | 25° C | 31% | 1016.4 hPa | 0 mm | - | 526 W/m² | - |
| 1777671511 | 24.44° C | 37% | 1016.4 hPa | 0 mm | - | 667 W/m² | - |
| 1777671207 | 24.44° C | 32% | 1016.5 hPa | 0 mm | - | 517 W/m² | - |
| 1777670903 | 24.44° C | 37% | 1016.6 hPa | 0 mm | - | 611 W/m² | - |
| 1777670600 | 23.89° C | 37% | 1016.5 hPa | 0 mm | - | 580 W/m² | - |
| 1777670297 | 24.44° C | 35% | 1016.7 hPa | 0 mm | - | 612 W/m² | - |
| 1777669994 | 23.89° C | 35% | 1016.6 hPa | 0 mm | - | 660 W/m² | - |
| 1777669691 | 23.89° C | 32% | 1016.5 hPa | 0 mm | - | 679 W/m² | - |
| 1777669388 | 24.44° C | 40% | 1016.9 hPa | 0 mm | - | 672 W/m² | - |
| 1777669084 | 24.44° C | 30% | 1016.7 hPa | 0 mm | - | 658 W/m² | - |
| 1777668781 | 23.89° C | 37% | 1016.9 hPa | 0 mm | - | 641 W/m² | - |
| 1777668478 | 24.44° C | 38% | 1016.8 hPa | 0 mm | - | 634 W/m² | - |
| 1777668175 | 23.89° C | 38% | 1017.1 hPa | 0 mm | - | 592 W/m² | - |
| 1777667871 | 23.89° C | 43% | 1017 hPa | 0 mm | - | 664 W/m² | - |
| 1777667569 | 23.89° C | 42% | 1017.1 hPa | 0 mm | - | 665 W/m² | - |
* Rain latest hour (hover to see other rain measurements)
** Current wind speed in m/s (hover to see current wind gust speed)